TIME,DELAY(SENSOR),PRES,T(CTD),SAL,OXYGEN,RAWTEMP,T(OPTODE),TCPHASE,FLUOR,BETA(BETA700),BETA(BETA412),BETA(BETA440),CDOM,C(CSC),ED(ED411.90),ED(ED443.80),ED(ED489.40),ED(ED554.70),LU(LU412.20),LU(LU443.80),LU(LU489.40),LU(LU555.00),COMP,TILTX,TILTX(TILTY),CHECK
1339258244,5804,281.7399902343750000,17.7201995849609380,36.5036010742187500,235.1132965087890600,164.5641021728515600,17.7170600891113280,30.8532199859619140,50,109,100,82,68,15179,2146952320,2147533549,2147322294,2147466029,2147087798,2146957394,2147691620,2147121408,2093,-2,8,5449
1339258354,5806,271.3599853515625000,17.7922992706298830,36.5102996826171900,234.8717041015625000,162.3108062744140600,17.7850704193115230,30.8347606658935550,51,107,99,82,68,15173,2146953563,2147540836,2147338121,2147465810,2147085184,2146969334,2147700160,2147116571,2167,-2,8,48653
1339258475,5804,259.8299865722656000,17.8423004150390620,36.5143013000488300,234.5713958740234400,160.5718994140625000,17.8375701904296880,30.8260002136230470,51,108,102,82,68,15180,2146956041,2147549220,2147368356,2147464886,2147088036,2146976832,2147716416,2147123126,3028,-2,8,43371
1339258585,5804,249.7200012207031200,17.9493007659912100,36.5145988464355500,232.7810058593750000,156.9035949707031200,17.9483299255371100,30.8637104034423830,51,112,100,82,67,5839,2146953362,2147560393,2147400274,2147464283,2147087085,2146987172,2147733165,2147126637,2185,-2,8,8277
1339258706,5805,238.9600067138672000,18.0986995697021500,36.5275993347168000,230.9832000732422000,152.0368041992187500,18.0953102111816400,30.8864002227783200,52,110,102,82,69,15176,2146953517,2147582189,2147450998,2147467346,2147087643,2146995986,2147762002,2147125851,1973,-2,8,46091
1339258827,5804,228.7500000000000000,18.5006008148193360,36.5569992065429700,229.4149017333984400,137.5391998291015600,18.5334491729736330,30.7696495056152340,52,111,101,83,67,15176,2146958262,2147608987,2147514697,2147465197,2147086445,2147015689,2147793938,2147128292,1338,-2,8,21706
1339258961,5805,217.4900054931640600,18.8363990783691400,36.5807991027832000,235.1255950927734400,127.0799026489257800,18.8498306274414060,30.3536090850830080,51,109,101,83,67,14674,2146964480,2147658578,2147616722,2147462720,2147092425,2147051776,2147853485,2147134162,1498,-2,8,14043
1339259093,5803,205.6900024414062500,19.2080001831054700,36.6067008972168000,245.8303985595703000,115.1054992675781200,19.2124004364013670,29.6991500854492200,51,109,103,83,64,15178,2146971584,2147727826,2147770907,2147461476,2147095488,2147102381,2147940589,2147141659,1383,-2,8,60136
1339259181,5804,197.6000061035156200,19.3120994567871100,36.6072998046875000,252.8350067138672000,111.7736968994140600,19.3133602142334000,29.3450698852539060,53,114,100,84,64,15175,2146981056,2147793270,2147909833,2147462034,2147100004,2147158582,2148025828,2147147620,709,-2,8,60950
1339259236,5805,192.4299926757812500,19.3631992340087900,36.6110992431640600,257.6773071289062500,110.3803024291992200,19.3555908203125000,29.1181793212890620,54,111,101,82,64,15177,2146988489,2147848393,2148022189,2147461924,2147112612,2147207469,2148094500,2147146971,1122,-2,8,31610
1339259311,5805,185.7299957275390600,19.3715000152587900,36.6123008728027340,260.0470886230469000,110.0239028930664000,19.3663902282714840,29.0130195617675780,53,112,102,84,66,15174,2147005284,2147933732,2148192429,2147460553,2147114505,2147271387,2148192484,2147158317,1281,-2,8,61315
1339259366,5805,181.3000030517578000,19.3752002716064450,36.6110992431640600,260.7211914062500000,109.8990020751953100,19.3701801300048830,28.9829292297363280,54,112,102,82,64,15178,2147015670,2147998747,2148321874,2147458752,2147118025,2147321398,2148276297,2147158500,1289,-2,8,52033
1339259421,5803,177.0200042724609400,19.3721008300781250,36.6083984375000000,261.0208129882812500,109.9662017822265600,19.3681392669677730,28.9714202880859380,54,115,101,83,64,15176,2147034678,2148072274,2148465718,2147460086,2147136704,2147380498,2148364114,2147168923,1116,-2,8,30907
1339259476,5804,172.8099975585937500,19.3731002807617200,36.6068992614746100,261.5741882324219000,109.9235992431640600,19.3694305419921880,28.9474601745605470,56,113,102,85,65,15172,2147050139,2148153856,2148625536,2147459035,2147141668,2147442825,2148454976,2147173741,1002,-2,8,30414
1339259531,5805,168.7400054931640600,19.3726997375488280,36.6038017272949200,261.8027954101562500,109.9512023925781200,19.3686008453369140,28.9382400512695300,59,113,102,83,63,15169,2147065042,2148245275,2148799552,2147462418,2147159908,2147503268,2148560905,2147179081,667,-2,8,1496
1339259586,5806,164.8300018310547000,19.3749008178710940,36.6020011901855500,261.6257019042969000,109.8535995483398400,19.3715591430664060,28.9445304870605470,60,112,102,83,65,15170,2147087113,2148337142,2148984777,2147462217,2147176128,2147576420,2148660187,2147183314,371,-2,8,32602
1339259663,5807,160.0299987792968800,19.3798007965087900,36.6002998352050800,261.7457885742187500,109.7238006591796900,19.3754901885986330,28.9378204345703120,69,115,102,84,65,15160,2147120100,2148458038,2149231698,2147464265,2147183561,2147668050,2148800530,2147191497,3576,-2,8,9117
1339259740,5805,156.3399963378906200,19.3810005187988280,36.5997009277343750,261.8594055175781000,109.6583023071289000,19.3774700164794920,28.9322395324707030,74,116,102,84,66,15154,2147151826,2148578587,2149452416,2147467117,2147204196,2147742710,2148916461,2147197595,3434,-2,8,63091
1339259828,5804,152.6799926757812500,19.3798007965087900,36.5970993041992200,262.0421142578125000,109.7235031127929700,19.3754997253417970,28.9253292083740230,73,116,102,83,64,15150,2147186596,2148710966,2149714441,2147465782,2147224502,2147827620,2149055707,2147208374,2927,-2,8,43768
1339259927,5804,149.0299987792968800,19.3733005523681640,36.5957984924316400,262.2871093750000000,109.9030990600586000,19.3700504302978500,28.9175796508789060,66,117,102,84,64,15159,2147230162,2148871460,2149996635,2147470043,2147258450,2147941906,2149217654,2147218276,3087,-2,8,9359
1339260050,5805,145.0000000000000000,19.3756008148193360,36.5942001342773440,262.6524047851562500,109.8757019042968800,19.3708896636962900,28.9018001556396500,67,114,102,85,64,15162,2147294811,2149074560,2150359030,2147474093,2147293805,2148103241,2149437897,2147231872,3589,-2,8,50985
1339260182,5805,141.1499938964843800,19.3789005279541000,36.5948982238769500,262.5303955078125000,109.7352981567382800,19.3751392364501950,28.9052505493164060,75,116,103,83,64,15131,2147378349,2149330834,2150779245,2147476891,2147348324,2148278738,2149669257,2147250441,256,-2,8,29667
1339260312,5808,136.5200042724609400,19.3841991424560550,36.5942001342773440,262.3912048339844000,109.5594024658203100,19.3804702758789060,28.9087505340576170,81,118,103,85,64,15139,2147502070,2149681078,2151397632,2147485714,2147415131,2148497554,2149968868,2147269403,373,-2,8,48273
1339260389,5801,132.5000000000000000,19.3892002105712900,36.5946006774902340,262.2980957031250000,109.4181976318359400,19.3847503662109380,28.9108009338378900,84,119,102,85,64,15134,2147615314,2149999798,2151958528,2147496740,2147475428,2148686491,2150243657,2147284900,182,-2,8,7049
1339260466,5806,128.1699981689453000,19.3945007324218750,36.5943984985351560,262.1812133789062500,109.2521972656250000,19.3897895812988280,28.9135799407959000,86,119,102,84,64,15130,2147748864,2150362166,2152614820,2147512502,2147552786,2148908178,2150576182,2147310244,22,-2,8,15776
1339260532,5803,124.3300018310546900,19.3966007232666000,36.5942001342773440,262.2434997558594000,109.1410980224609400,19.3931503295898440,28.9094200134277340,94,126,103,84,65,15122,2147899392,2150761517,2153334381,2147526683,2147620086,2149135277,2150917568,2147335268,3497,-2,8,58351
1339260600,5806,120.3099975585937500,19.4055004119873050,36.5942993164062500,263.1982116699219000,108.8498001098632800,19.4019794464111330,28.8661708831787100,107,124,104,86,65,15116,2148099017,2151284800,2154228836,2147546797,2147715465,2149380086,2151284443,2147361216,3501,-2,8,51095
1339260666,5808,116.4499969482421900,19.4106006622314450,36.5937995910644500,263.9107055664062500,108.7091979980468800,19.4062404632568360,28.8346290588378900,114,125,104,85,63,15102,2148358354,2151945371,2155309632,2147573476,2147823040,2149647305,2151687890,2147398747,57,-2,8,44710
1339260743,5806,112.1399993896484400,19.4216995239257800,36.5943984985351560,264.7463989257812500,108.3187026977539000,19.4180793762207030,28.7950897216796880,116,127,105,85,65,15102,2148783021,2152974180,2156919003,2147617764,2147992420,2150064658,2152284854,2147452937,199,-2,8,33649
1339260809,5804,108.6699981689453100,19.4340991973876950,36.5942001342773440,266.4375915527344000,107.9197998046875000,19.4301700592041000,28.7206096649169920,116,124,102,84,66,15102,2149236123,2154034377,2158463862,2147662052,2148188077,2150487963,2152872612,2147508260,303,-2,8,25024
1339260899,5804,104.3399963378906200,19.4666004180908200,36.5933990478515600,268.7094116210937500,106.8977966308593800,19.4611606597900400,28.6148700714111330,130,127,104,85,65,15074,2150082340,2155949970,2161089782,2147742208,2148523163,2151230464,2153767378,2147598336,162,-2,8,5244
1339260987,5805,100.4700012207031200,19.4867992401123050,36.5933990478515600,270.2908020019531000,106.2282028198242200,19.4814605712890620,28.5425090789794920,129,127,104,85,66,15060,2151178322,2158332845,2164172772,2147836900,2148951369,2152106212,2154801965,2147712265,3402,-2,8,40457
1339261042,5801,98.1600036621093800,19.4943008422851560,36.5937995910644500,271.0610046386719000,105.9149017333984400,19.4909591674804700,28.5075893402099600,128,129,104,85,67,15058,2152011776,2160097627,2166367963,2147911469,2149284352,2152776128,2155557732,2147793627,3320,-2,8,56838
1339261097,5809,95.6999969482421900,19.5207996368408200,36.5920982360839840,271.9085083007812500,105.1129989624023400,19.5152797698974600,28.4636192321777340,127,130,105,85,66,15045,2153048512,2162259218,2168987830,2148012480,2149710134,2153591990,2156500653,2147899968,17,-2,8,45696
1339261152,5804,93.2900009155273400,19.5289993286132800,36.5940017700195300,272.5398864746094000,104.6623992919921900,19.5289497375488280,28.4325408935546880,115,127,105,86,66,15032,2154200128,2164553097,2171660809,2148112557,2150178788,2154516672,2157538944,2148016905,3453,-2,8,6428
1339261209,5807,90.5999984741211000,19.5359992980957030,36.5936012268066400,273.4909057617187500,104.5285034179687500,19.5330104827880860,28.3930702209472660,111,131,105,86,64,15034,2155609270,2167307986,2174845138,2148260141,2150818486,2155728731,2158855881,2148163904,33,-2,8,57395
1339261264,5804,87.8600006103515600,19.5522003173828120,36.5932006835937500,274.3109130859375000,103.9784011840820300,19.5496902465820300,28.3537101745605470,111,129,106,87,65,15045,2157344603,2170598043,2178597330,2148453065,2151590198,2157197933,2160408950,2148342034,152,-2,8,60478
1339261319,5804,85.0100021362304700,19.5811004638671880,36.5938987731933600,275.1813049316406000,103.0727005004882800,19.5771598815917970,28.3079700469970700,106,131,105,87,64,15035,2159440228,2174430784,2182885878,2148697353,2152522852,2158952283,2162253476,2148548800,3262,-2,8,21208
1339261374,5803,82.0699996948242200,19.5935993194580080,36.5932006835937500,276.1669006347656000,102.5411987304687500,19.5932807922363280,28.2624702453613280,99,134,106,87,63,15025,2161131986,2177092553,2185403465,2148912530,2153369920,2160389540,2163596608,2148705289,2551,-2,8,26969
1339261429,5804,79.0500030517578100,19.6280002593994140,36.5912017822265600,276.5487976074219000,101.5707015991211000,19.6227207183837900,28.2353496551513670,101,131,108,88,63,14989,2164658916,2183137956,2192114377,2149353225,2155102500,2163580470,2166919122,2149063296,1840,-2,8,41303
1339261484,5803,75.9300003051757800,19.6574001312255860,36.5934982299804700,277.3223876953125000,100.6700973510742200,19.6500396728515620,28.1938896179199220,96,142,108,86,63,15010,2168429037,2189192950,2198359661,2149860900,2156916854,2166685778,2169928283,2149411099,1611,-2,8,24941
1339261541,5805,72.4899978637695300,19.6874008178710940,36.5932998657226560,277.8960876464844000,99.6365966796875000,19.6814002990722660,28.1584606170654300,93,141,107,89,64,15004,2173129920,2196439862,2205802514,2150549302,2159230912,2170508105,2173602578,2149844516,1992,-2,8,24657
1339261596,5806,69.1100006103515600,19.7269992828369140,36.5933990478515600,278.6828918457031000,98.3331069946289000,19.7209606170654300,28.1116294860839840,91,141,108,89,63,14998,2179344429,2205823972,2215580342,2151537078,2162335213,2175562596,2178267081,2150398418,2399,-2,8,5438
1339261651,5805,65.7399978637695300,19.7646007537841800,36.5956001281738300,279.5751953125000000,96.4901733398437500,19.7768898010253900,28.0539207458496100,89,136,106,89,63,14990,2186184347,2215572086,2225140169,2152694573,2165845732,2180995904,2183110811,2151028644,2552,-2,8,30097
1339261706,5804,62.7299995422363300,19.8505992889404300,36.5961990356445300,280.1684875488281000,94.2976074218750000,19.8434505462646500,28.0036201477050780,89,138,110,88,62,14992,2189434898,2218688438,2226820187,2153316041,2167826276,2183323200,2184669760,2151329106,1935,-2,8,2618
1339261761,5801,59.9900016784668000,19.8824996948242200,36.5959014892578100,280.5786132812500000,93.1450729370117200,19.8784408569335940,27.9736099243164060,89,139,109,88,62,14979,2201012644,2235532800,2244162861,2155325385,2174018971,2193028050,2193754112,2152515090,1585,-2,8,18515
1339261816,5808,57.5299987792968750,19.9813003540039060,36.6022987365722660,280.4013061523437500,90.1788101196289000,19.9685306549072270,27.9433403015136720,86,136,108,88,61,14966,2209173504,2246321993,2254469741,2156965357,2178468772,2199322477,2199100288,2153305060,1706,-2,9,37500
1339261873,5809,55.5699996948242200,20.0200004577636720,36.6038017272949200,280.3084106445312500,88.5490875244140600,20.0180397033691400,27.9265098571777340,83,138,109,91,63,14966,2216271826,2255097408,2262309248,2158345188,2182449572,2204656256,2203405522,2153908406,1815,-2,8,19908
1339262015,5805,53.7400016784668000,20.2402992248535160,36.6072998046875000,279.8601989746094000,82.2118606567382800,20.2106399536132800,27.8649101257324220,78,138,109,89,62,14964,2223597220,2262660032,2267450861,2159290057,2186875529,2209702985,2206179803,2154325851,1058,-2,8,23228
1339262240,5808,52.6899986267089840,20.6037006378173830,36.6271018981933600,278.1889038085937500,67.7852401733398400,20.6496601104736330,27.7501296997070300,71,138,110,89,60,14963,2237611008,2277926555,2278480749,2160854893,2196674605,2221491712,2213872987,2155274093,1786,-3,8,2152
1339262297,5801,50.3800010681152340,20.8288993835449220,36.5998992919921900,277.3729858398437500,62.5025901794433600,20.8106193542480470,27.7162990570068360,70,135,108,90,60,14959,2247894016,2289423872,2289163181,2163484544,2204727762,2231176484,2220748306,2156418413,1071,-2,8,32265
1339262342,5804,48.3699989318847660,20.9025993347167970,36.5956001281738300,276.9625854492187500,59.7818107604980500,20.8935699462890620,27.6985893249511720,69,147,108,88,61,14952,2252491712,2293245668,2292018944,2165122605,2209540882,2236555995,2224471140,2157102966,1049,-2,8,47251
1339262387,5807,46.5099983215332000,20.9253005981445300,36.5915985107421900,276.6419067382812500,58.6362495422363300,20.9284992218017580,27.6966705322265620,66,135,109,88,63,14899,2258753206,2300378697,2299189001,2167272658,2214254820,2242004370,2228683830,2157922285,968,-2,8,32275
1339262444,5807,44.7599983215332000,20.9752006530761720,36.5853996276855500,275.9531860351562500,56.9174308776855500,20.9809303283691400,27.7022304534912100,64,134,109,89,61,14942,2271228224,2315738642,2314142089,2170408457,2223245248,2253615323,2237769654,2159320009,680,-3,8,53259
1339262536,5807,42.8100013732910160,21.0414009094238280,36.5792007446289060,275.1763000488281000,54.2368698120117200,21.0627193450927730,27.6993999481201170,65,134,108,89,60,14955,2283000182,2328177481,2325720374,2174464886,2235059538,2267337536,2247416841,2161087908,629,-2,8,60619
1339262605,5804,40.7000007629394500,21.1558990478515620,36.5611000061035160,274.3468933105469000,51.0299491882324200,21.1606006622314450,27.6919898986816400,62,135,108,87,62,14968,2295202450,2341563474,2338665142,2178897810,2246813275,2280451072,2256071067,2162260809,2929,-2,8,49235
1339262674,5805,38.6599998474121100,21.2192001342773440,36.5550003051757800,273.4259033203125000,48.8136787414550800,21.2282791137695300,27.7007198333740230,58,136,111,88,57,14979,2305315108,2352142144,2348347145,2183835638,2262753389,2298419163,2268414692,2164698304,2083,-2,9,45065
1339262743,5804,36.5600013732910160,21.2759990692138670,36.5559005737304700,273.3190917968750000,47.0377197265625000,21.2825202941894530,27.6830101013183600,59,132,108,86,58,14984,2321527314,2371411392,2368728045,2191191798,2278512950,2315118418,2279632256,2166991945,1661,-2,9,64580
1339262823,5804,34.0000000000000000,21.3309993743896500,36.5615005493164060,273.0498046875000000,45.1970405578613300,21.3387603759765620,27.6707801818847660,57,130,109,89,62,14987,2330809362,2378004306,2373855350,2197158729,2300527177,2338042148,2294382665,2170060873,1172,-2,8,57427
1339262856,5806,32.4500007629394500,21.3512992858886720,36.5553016662597660,273.0827026367187500,44.4994697570800800,21.3600807189941400,27.6608390808105470,57,132,108,88,60,14986,2341954102,2390559387,2387618066,2205008694,2313434752,2351510948,2302658907,2172027803,1062,-2,8,4354
1339262889,5804,30.7900009155273440,21.3610992431640620,36.5539016723632800,272.9281921386719000,44.0691909790039060,21.3732299804687500,27.6616592407226560,57,128,107,90,61,14987,2353600585,2403420004,2400676745,2211770432,2330170624,2369459730,2314750427,2174487305,1124,-2,8,41546
1339262934,5805,28.5200004577636720,21.3705997467041000,36.5521011352539060,272.8463134765625000,43.6003684997558600,21.3875598907470700,27.6590003967285160,57,128,107,87,58,14994,2368312347,2417898505,2414551570,2221830171,2350681819,2389815085,2326920210,2177616246,1107,-2,8,60045
1339262979,5801,26.2700004577636720,21.4146995544433600,36.5424995422363300,272.5674133300781000,42.2038307189941400,21.4302501678466800,27.6527690887451170,55,129,109,88,60,14992,2382422034,2431550966,2429266560,2234167780,2377379584,2416836096,2345393481,2182425965,1073,-2,8,41391
